When you browse on this site, cookies collect data to enhance your experience and personalize the content and advertising you see.
Visit our Privacy Policy to learn more. By continuing to use the site, you agree to this use of cookies and data.
  • In Latvia
  • List of Countries
  • For 7 days
  • Water Temperature
  • Weather Map
  • Weather Widgets
  • user-avatar
    Login

    Hourly Weather Laksau

    Today, 18 September, Wednesday

    Time Temperature Precipitation Wind Pressure Humidity
    00:00 +23°C° 0 mm 1 mps 701 mmHg 94%
    01:00 +23°C° 0 mm 1 mps 701 mmHg 91%
    02:00 +22°C° 0 mm 1 mps 701 mmHg 91%
    03:00 +22°C° 0 mm 1 mps 700 mmHg 90%
    04:00 +22°C° 0 mm 1 mps 700 mmHg 89%
    05:00 +23°C° 0 mm 1 mps 701 mmHg 87%
    06:00 +23°C° 0 mm 1 mps 701 mmHg 84%
    07:00 +24°C° 0 mm 1 mps 702 mmHg 81%
    08:00 +26°C° 0 mm 1 mps 702 mmHg 74%
    09:00 +28°C° 0 mm 1 mps 703 mmHg 67%
    10:00 +31°C° 0 mm 2 mps 703 mmHg 59%
    11:00 +30°C° 0.5 mm 2 mps 703 mmHg 64%
    12:00 +30°C° 0.5 mm 2 mps 702 mmHg 68%
    13:00 +30°C° 0.5 mm 2 mps 701 mmHg 73%
    14:00 +29°C° 0.2 mm 2 mps 701 mmHg 69%
    15:00 +29°C° 0.2 mm 2 mps 701 mmHg 66%
    16:00 +29°C° 0.2 mm 2 mps 700 mmHg 62%
    17:00 +27°C° 0 mm 2 mps 701 mmHg 71%
    18:00 +26°C° 0 mm 2 mps 701 mmHg 80%
    19:00 +24°C° 0 mm 1 mps 701 mmHg 88%
    20:00 +23°C° 0 mm 1 mps 702 mmHg 90%
    21:00 +23°C° 0 mm 1 mps 702 mmHg 92%
    22:00 +23°C° 0 mm 1 mps 702 mmHg 95%
    23:00 +23°C° 0 mm 1 mps 702 mmHg 95%

    Tomorrow, 19 September, Thursday

    Time Temperature Precipitation Wind Pressure Humidity
    00:00 +22°C° 0 mm 1 mps 701 mmHg 95%
    01:00 +22°C° 0 mm 1 mps 701 mmHg 96%
    02:00 +22°C° 0 mm 1 mps 701 mmHg 95%
    03:00 +23°C° 0 mm 1 mps 701 mmHg 94%
    04:00 +23°C° 0 mm 1 mps 701 mmHg 93%
    05:00 +23°C° 0 mm 1 mps 701 mmHg 92%
    06:00 +23°C° 0 mm 1 mps 702 mmHg 91%
    07:00 +23°C° 0 mm 1 mps 702 mmHg 90%
    08:00 +24°C° 0 mm 1 mps 702 mmHg 87%
    09:00 +25°C° 0 mm 1 mps 703 mmHg 83%
    10:00 +26°C° 0 mm 1 mps 703 mmHg 80%
    11:00 +27°C° 0 mm 2 mps 703 mmHg 71%
    12:00 +29°C° 0 mm 2 mps 702 mmHg 63%
    13:00 +31°C° 0 mm 2 mps 702 mmHg 55%
    14:00 +30°C° 0 mm 2 mps 701 mmHg 57%
    15:00 +30°C° 0 mm 2 mps 701 mmHg 60%
    16:00 +29°C° 0 mm 2 mps 700 mmHg 62%
    17:00 +27°C° 0 mm 2 mps 700 mmHg 71%
    18:00 +25°C° 0 mm 2 mps 701 mmHg 80%
    19:00 +24°C° 0 mm 1 mps 701 mmHg 90%
    20:00 +23°C° 0 mm 1 mps 701 mmHg 92%
    21:00 +23°C° 0 mm 1 mps 702 mmHg 94%
    22:00 +22°C° 0 mm 1 mps 702 mmHg 97%
    23:00 +22°C° 0 mm 1 mps 702 mmHg 97%

    Day after tomorrow, 20 September, Friday

    Time Temperature Precipitation Wind Pressure Humidity
    00:00 +22°C° 0 mm 1 mps 702 mmHg 97%
    01:00 +22°C° 0 mm 1 mps 701 mmHg 98%
    02:00 +22°C° 0 mm 1 mps 701 mmHg 98%
    03:00 +22°C° 0 mm 1 mps 701 mmHg 98%
    04:00 +21°C° 0 mm 1 mps 701 mmHg 98%
    05:00 +22°C° 0 mm 1 mps 701 mmHg 95%
    06:00 +23°C° 0 mm 1 mps 701 mmHg 93%
    07:00 +23°C° 0 mm 1 mps 702 mmHg 90%
    08:00 +26°C° 0 mm 1 mps 702 mmHg 79%
    09:00 +28°C° 0 mm 1 mps 703 mmHg 68%
    10:00 +30°C° 0 mm 1 mps 703 mmHg 57%
    11:00 +30°C° 0.2 mm 1 mps 702 mmHg 60%
    12:00 +30°C° 0.2 mm 1 mps 702 mmHg 62%
    13:00 +31°C° 0.2 mm 2 mps 701 mmHg 64%
    14:00 +30°C° 0.9 mm 2 mps 700 mmHg 71%
    15:00 +29°C° 0.9 mm 1 mps 700 mmHg 77%
    16:00 +28°C° 0.9 mm 1 mps 699 mmHg 84%
    17:00 +26°C° 0.1 mm 1 mps 700 mmHg 88%
    18:00 +25°C° 0.1 mm 1 mps 700 mmHg 92%
    19:00 +23°C° 0.1 mm 1 mps 700 mmHg 96%
    20:00 +23°C° 0 mm 1 mps 701 mmHg 97%
    21:00 +23°C° 0 mm 1 mps 701 mmHg 97%
    22:00 +22°C° 0 mm 1 mps 702 mmHg 98%
    23:00 +22°C° 0 mm 1 mps 702 mmHg 98%

    21 September, Saturday

    Time Temperature Precipitation Wind Pressure Humidity
    00:00 +22°C° 0 mm 1 mps 701 mmHg 98%
    01:00 +22°C° 0 mm 1 mps 701 mmHg 98%
    02:00 +22°C° 0 mm 1 mps 701 mmHg 98%
    03:00 +21°C° 0 mm 1 mps 700 mmHg 98%
    04:00 +21°C° 0 mm 1 mps 700 mmHg 98%
    05:00 +22°C° 0 mm 1 mps 701 mmHg 96%
    06:00 +22°C° 0 mm 1 mps 701 mmHg 94%
    07:00 +23°C° 0 mm 1 mps 702 mmHg 92%
    08:00 +25°C° 0 mm 1 mps 702 mmHg 81%
    09:00 +27°C° 0 mm 2 mps 702 mmHg 69%
    10:00 +29°C° 0 mm 2 mps 703 mmHg 57%
    11:00 +29°C° 0.1 mm 2 mps 702 mmHg 57%
    12:00 +30°C° 0.1 mm 2 mps 702 mmHg 57%
    13:00 +30°C° 0.1 mm 3 mps 702 mmHg 57%
    14:00 +29°C° 0.2 mm 3 mps 701 mmHg 61%
    15:00 +28°C° 0.2 mm 3 mps 701 mmHg 65%
    16:00 +28°C° 0.2 mm 2 mps 700 mmHg 69%
    17:00 +26°C° 0.1 mm 2 mps 701 mmHg 76%
    18:00 +24°C° 0.1 mm 2 mps 701 mmHg 82%
    19:00 +23°C° 0.1 mm 1 mps 701 mmHg 89%
    20:00 +22°C° 0 mm 1 mps 702 mmHg 90%
    21:00 +22°C° 0 mm 1 mps 703 mmHg 91%
    22:00 +22°C° 0 mm 1 mps 703 mmHg 92%
    23:00 +22°C° 0 mm 1 mps 703 mmHg 92%

    22 September, Sunday

    Time Temperature Precipitation Wind Pressure Humidity
    00:00 +22°C° 0 mm 1 mps 703 mmHg 93%
    01:00 +21°C° 0 mm 1 mps 702 mmHg 93%
    02:00 +21°C° 0 mm 1 mps 702 mmHg 94%
    03:00 +21°C° 0 mm 1 mps 702 mmHg 94%
    04:00 +21°C° 0 mm 1 mps 702 mmHg 95%
    05:00 +21°C° 0 mm 1 mps 702 mmHg 92%
    06:00 +22°C° 0 mm 1 mps 703 mmHg 89%
    07:00 +22°C° 0 mm 1 mps 703 mmHg 86%
    08:00 +24°C° 0 mm 2 mps 704 mmHg 78%
    09:00 +25°C° 0 mm 2 mps 704 mmHg 69%
    10:00 +26°C° 0 mm 2 mps 705 mmHg 61%
    11:00 +26°C° 0.2 mm 3 mps 704 mmHg 65%
    12:00 +26°C° 0.2 mm 3 mps 704 mmHg 69%
    13:00 +26°C° 0.2 mm 3 mps 703 mmHg 72%
    14:00 +25°C° 0 mm 3 mps 703 mmHg 74%
    15:00 +25°C° 0 mm 3 mps 703 mmHg 75%
    16:00 +24°C° 0 mm 3 mps 702 mmHg 77%
    17:00 +23°C° 0 mm 2 mps 703 mmHg 81%
    18:00 +21°C° 0 mm 2 mps 703 mmHg 86%
    19:00 +21°C° 0 mm 1 mps 703 mmHg 90%
    20:00 +21°C° 0 mm 1 mps 704 mmHg 91%
    21:00 +21°C° 0 mm 1 mps 704 mmHg 91%
    22:00 +20°C° 0 mm 1 mps 705 mmHg 92%
    23:00 +20°C° 0 mm 1 mps 704 mmHg 92%

    23 September, Monday

    Time Temperature Precipitation Wind Pressure Humidity
    00:00 +20°C° 0 mm 1 mps 704 mmHg 92%
    01:00 +20°C° 0 mm 1 mps 704 mmHg 92%
    02:00 +20°C° 0 mm 1 mps 704 mmHg 93%
    03:00 +20°C° 0 mm 1 mps 704 mmHg 93%
    04:00 +20°C° 0 mm 1 mps 704 mmHg 94%
    05:00 +20°C° 0 mm 1 mps 704 mmHg 91%
    06:00 +21°C° 0 mm 1 mps 705 mmHg 88%
    07:00 +22°C° 0 mm 1 mps 705 mmHg 86%
    08:00 +23°C° 0 mm 2 mps 706 mmHg 76%
    09:00 +25°C° 0 mm 2 mps 706 mmHg 66%
    10:00 +27°C° 0 mm 2 mps 706 mmHg 56%
    11:00 +27°C° 0 mm 3 mps 706 mmHg 55%
    12:00 +28°C° 0 mm 3 mps 705 mmHg 54%
    13:00 +29°C° 0 mm 3 mps 705 mmHg 54%
    14:00 +28°C° 0 mm 3 mps 704 mmHg 56%
    15:00 +27°C° 0 mm 3 mps 704 mmHg 59%
    16:00 +26°C° 0 mm 3 mps 703 mmHg 62%
    17:00 +24°C° 0 mm 2 mps 703 mmHg 70%
    18:00 +23°C° 0 mm 2 mps 703 mmHg 78%
    19:00 +20°C° 0 mm 2 mps 704 mmHg 85%
    20:00 +20°C° 0 mm 2 mps 704 mmHg 87%
    21:00 +19°C° 0 mm 2 mps 705 mmHg 88%
    22:00 +20°C° 0 mm 1 mps 705 mmHg 89%
    23:00 +20°C° 0 mm 1 mps 705 mmHg 90%
    Show more